WAT1341 YSSY-YMML

Flight info

Callsign WAT1341
Flight time 1h 18m
Altitude 40000
Route MARUB7/34R WOL H65 LEECE Q29 ML
Aircraft CL60/M-SBDE1E2E3FGHIJ1J4J5J7M3RWXYZ/LB1V1D1

Departure

Time 2026-05-04 08:46
Airport Sydney Kingsford Smith International Airport (YSSY)

Arrival

Time 2026-05-04 10:04
Airport Melbourne Airport (YMML)
Time Latitude Longitude Altitude Speed Heading
2026-05-04 07:57 -33.93423 151.16989 24 ft 0 kts 14°
2026-05-04 08:20 -33.93436 151.16986 24 ft 2 kts 13°
2026-05-04 08:20 -33.93451 151.16981 24 ft 2 kts 13°
2026-05-04 08:20 -33.93465 151.16977 24 ft 2 kts 13°
2026-05-04 08:21 -33.93480 151.16974 24 ft 2 kts 13°
2026-05-04 08:21 -33.93495 151.16969 24 ft 2 kts 13°
2026-05-04 08:21 -33.93507 151.16962 24 ft 2 kts 53°
2026-05-04 08:21 -33.93510 151.16945 24 ft 1 kts 108°
2026-05-04 08:22 -33.93508 151.16940 24 ft 0 kts 115°
2026-05-04 08:25 -33.93511 151.16950 24 ft 4 kts 108°
2026-05-04 08:26 -33.93511 151.16998 24 ft 7 kts 79°
2026-05-04 08:27 -33.93880 151.17200 24 ft 0 kts 168°
2026-05-04 08:28 -33.93888 151.17203 24 ft 5 kts 168°
2026-05-04 08:28 -33.93952 151.17219 24 ft 11 kts 168°
2026-05-04 08:28 -33.94041 151.17242 24 ft 14 kts 168°
2026-05-04 08:29 -33.94154 151.17271 24 ft 18 kts 167°
2026-05-04 08:29 -33.94286 151.17305 24 ft 21 kts 168°
2026-05-04 08:29 -33.94438 151.17345 24 ft 23 kts 167°
2026-05-04 08:31 -33.95262 151.17595 24 ft 6 kts 105°
2026-05-04 08:33 -33.95263 151.17619 24 ft 0 kts 82°
2026-05-04 08:35 -33.95263 151.17621 24 ft 0 kts 82°
2026-05-04 08:35 -33.95259 151.17650 24 ft 9 kts 77°
2026-05-04 08:35 -33.95241 151.17746 24 ft 13 kts 78°
2026-05-04 08:37 -33.95048 151.18413 24 ft 9 kts 78°
2026-05-04 08:37 -33.95061 151.18497 24 ft 12 kts 137°
2026-05-04 08:37 -33.95138 151.18568 24 ft 15 kts 136°
2026-05-04 08:38 -33.95225 151.18663 24 ft 18 kts 141°
2026-05-04 08:38 -33.95354 151.18730 24 ft 21 kts 167°
2026-05-04 08:38 -33.95507 151.18770 24 ft 22 kts 168°
2026-05-04 08:40 -33.96673 151.19072 24 ft 18 kts 169°
2026-05-04 08:40 -33.96790 151.19067 24 ft 17 kts 183°
2026-05-04 08:40 -33.96919 151.19092 24 ft 20 kts 168°
2026-05-04 08:41 -33.97045 151.19125 24 ft 16 kts 167°
2026-05-04 08:41 -33.97123 151.19163 24 ft 10 kts 127°
2026-05-04 08:41 -33.97127 151.19238 24 ft 8 kts 77°
2026-05-04 08:41 -33.97121 151.19269 24 ft 0 kts 78°
2026-05-04 08:42 -33.97120 151.19276 24 ft 5 kts 77°
2026-05-04 08:43 -33.97107 151.19344 24 ft 10 kts 71°
2026-05-04 08:43 -33.97069 151.19379 24 ft 5 kts 352°
2026-05-04 08:43 -33.97067 151.19379 24 ft 0 kts 351°
2026-05-04 08:44 -33.97063 151.19377 24 ft 5 kts 350°
2026-05-04 08:44 -33.96807 151.19312 24 ft 80 kts 348°
2026-05-04 08:46 -33.94318 151.25221 4861 ft 217 kts 80°
2026-05-04 08:46 -33.94193 151.27112 5115 ft 242 kts 79°
2026-05-04 08:46 -33.94041 151.29225 5961 ft 267 kts 81°
2026-05-04 08:46 -33.93905 151.31523 6993 ft 285 kts 82°
2026-05-04 08:47 -33.93794 151.33919 8177 ft 295 kts 83°
2026-05-04 08:47 -33.93683 151.36369 9399 ft 302 kts 83°
2026-05-04 08:47 -33.93570 151.38888 10607 ft 307 kts 83°
2026-05-04 08:47 -33.93454 151.41473 11716 ft 315 kts 83°
2026-05-04 08:48 -33.93338 151.44063 12815 ft 321 kts 83°
2026-05-04 08:48 -33.93217 151.46782 13891 ft 327 kts 83°
2026-05-04 08:48 -33.93108 151.49478 14950 ft 332 kts 85°
2026-05-04 08:48 -33.93539 151.52235 15926 ft 345 kts 112°
2026-05-04 08:49 -33.94971 151.54564 16773 ft 357 kts 139°
2026-05-04 08:50 -34.09094 151.52368 19893 ft 403 kts 238°
2026-05-04 08:50 -34.10826 151.49658 20574 ft 409 kts 239°
2026-05-04 08:51 -34.12563 151.46954 21295 ft 413 kts 238°
2026-05-04 08:51 -34.14338 151.44189 21986 ft 417 kts 238°
2026-05-04 08:51 -34.16104 151.41438 22619 ft 421 kts 238°
2026-05-04 08:51 -34.17903 151.38631 23236 ft 426 kts 238°
2026-05-04 08:52 -34.19716 151.35805 23959 ft 427 kts 239°
2026-05-04 08:52 -34.21517 151.32996 24759 ft 425 kts 240°
2026-05-04 08:52 -34.23340 151.30150 25354 ft 429 kts 239°
2026-05-04 08:52 -34.25163 151.27301 26034 ft 430 kts 239°
2026-05-04 08:53 -34.26987 151.24451 26609 ft 432 kts 239°
2026-05-04 08:54 -34.40214 151.03690 29628 ft 449 kts 240°
2026-05-04 08:55 -34.42135 151.00668 30167 ft 447 kts 240°
2026-05-04 08:55 -34.44029 150.97687 30752 ft 444 kts 240°
2026-05-04 08:55 -34.45908 150.94730 31336 ft 440 kts 241°
2026-05-04 08:55 -34.47739 150.91844 31980 ft 433 kts 241°
2026-05-04 08:57 -34.60006 150.72156 35251 ft 411 kts 243°
2026-05-04 09:01 -34.83426 150.33093 38747 ft 408 kts 243°
2026-05-04 09:01 -34.85074 150.30330 38914 ft 409 kts 243°
2026-05-04 09:01 -34.86762 150.27498 39137 ft 408 kts 243°
2026-05-04 09:01 -34.88421 150.24710 39331 ft 408 kts 243°
2026-05-04 09:02 -34.90094 150.21896 39410 ft 411 kts 243°
2026-05-04 09:02 -34.93462 150.16228 39653 ft 413 kts 243°
2026-05-04 09:02 -34.95141 150.13400 39873 ft 411 kts 243°
2026-05-04 09:03 -34.96825 150.10562 40136 ft 411 kts 243°
2026-05-04 09:03 -34.98508 150.07718 40003 ft 416 kts 243°
2026-05-04 09:03 -35.00196 150.04866 40041 ft 417 kts 243°
2026-05-04 09:04 -35.03624 149.99065 40051 ft 423 kts 243°
2026-05-04 09:04 -35.07067 149.93234 40029 ft 426 kts 242°
2026-05-04 09:05 -35.10519 149.87378 40063 ft 426 kts 243°
2026-05-04 09:05 -35.13983 149.81496 40080 ft 424 kts 242°
2026-05-04 09:06 -35.17419 149.75647 40066 ft 424 kts 242°
2026-05-04 09:08 -35.31203 149.52086 40042 ft 428 kts 242°
2026-05-04 09:08 -35.34669 149.46135 40063 ft 428 kts 242°
2026-05-04 09:09 -35.38130 149.40184 40066 ft 430 kts 242°
2026-05-04 09:09 -35.41577 149.34248 40070 ft 429 kts 243°
2026-05-04 09:10 -35.45038 149.28278 40057 ft 429 kts 243°
2026-05-04 09:10 -35.48493 149.22305 40065 ft 430 kts 243°
2026-05-04 09:11 -35.51955 149.16312 40072 ft 429 kts 243°
2026-05-04 09:11 -35.55399 149.10338 40072 ft 429 kts 243°
2026-05-04 09:12 -35.58844 149.04355 40095 ft 429 kts 243°
2026-05-04 09:14 -35.72321 148.80873 40055 ft 390 kts 243°
2026-05-04 09:14 -35.75407 148.75464 40073 ft 385 kts 244°
2026-05-04 09:15 -35.78468 148.70087 40059 ft 386 kts 243°
2026-05-04 09:15 -35.81551 148.64659 40035 ft 387 kts 243°
2026-05-04 09:17 -35.95300 148.40335 40052 ft 385 kts 243°
2026-05-04 09:18 -35.98337 148.34927 40068 ft 385 kts 244°
2026-05-04 09:18 -36.01395 148.29477 40066 ft 386 kts 244°
2026-05-04 09:19 -36.04445 148.24034 40077 ft 384 kts 244°
2026-05-04 09:19 -36.07488 148.18591 40057 ft 384 kts 243°
2026-05-04 09:20 -36.10514 148.13173 40081 ft 385 kts 244°
2026-05-04 09:20 -36.13564 148.07715 40066 ft 385 kts 244°
2026-05-04 09:21 -36.16624 148.02241 40065 ft 386 kts 244°
2026-05-04 09:21 -36.19663 147.96796 40050 ft 386 kts 244°
2026-05-04 09:22 -36.22715 147.91321 40048 ft 387 kts 244°
2026-05-04 09:22 -36.25770 147.85829 40054 ft 387 kts 243°
2026-05-04 09:23 -36.28822 147.80337 40063 ft 387 kts 244°
2026-05-04 09:23 -36.31851 147.74878 40058 ft 386 kts 244°
2026-05-04 09:25 -36.43968 147.52896 40036 ft 387 kts 243°
2026-05-04 09:26 -36.47031 147.47308 40036 ft 395 kts 244°
2026-05-04 09:26 -36.50131 147.41646 40025 ft 402 kts 243°
2026-05-04 09:27 -36.53299 147.35854 40033 ft 408 kts 243°
2026-05-04 09:27 -36.56527 147.29942 40041 ft 416 kts 244°
2026-05-04 09:28 -36.59800 147.23935 40033 ft 422 kts 243°
2026-05-04 09:28 -36.63093 147.17886 40032 ft 428 kts 243°
2026-05-04 09:29 -36.66445 147.11716 40013 ft 432 kts 243°
2026-05-04 09:29 -36.69814 147.05507 40026 ft 435 kts 243°
2026-05-04 09:30 -36.73199 146.99255 40039 ft 436 kts 243°
2026-05-04 09:30 -36.76597 146.92969 39916 ft 439 kts 243°
2026-05-04 09:31 -36.78298 146.89813 39375 ft 442 kts 243°
2026-05-04 09:31 -36.80016 146.86629 38807 ft 438 kts 243°
2026-05-04 09:31 -36.81697 146.83514 38246 ft 433 kts 243°
2026-05-04 09:31 -36.83363 146.80423 37717 ft 428 kts 243°
2026-05-04 09:32 -36.85008 146.77364 37176 ft 427 kts 243°
2026-05-04 09:32 -36.86657 146.74292 36594 ft 427 kts 244°
2026-05-04 09:34 -36.98312 146.52506 32615 ft 431 kts 245°
2026-05-04 09:34 -36.99974 146.49385 32027 ft 433 kts 245°
2026-05-04 09:34 -37.01646 146.46298 31462 ft 436 kts 243°
2026-05-04 09:34 -37.03828 146.43510 30893 ft 460 kts 226°
2026-05-04 09:35 -37.06705 146.41621 30370 ft 484 kts 207°
2026-05-04 09:35 -37.10090 146.40819 30071 ft 500 kts 193°
2026-05-04 09:35 -37.13552 146.40457 29876 ft 503 kts 192°
2026-05-04 09:35 -37.17083 146.40099 29659 ft 506 kts 192°
2026-05-04 09:37 -37.41770 146.37295 28374 ft 506 kts 192°
2026-05-04 09:37 -37.45226 146.36881 28088 ft 503 kts 192°
2026-05-04 09:38 -37.48711 146.36441 27788 ft 500 kts 192°
2026-05-04 09:38 -37.52161 146.36008 27483 ft 488 kts 192°
2026-05-04 09:38 -37.55466 146.35600 27143 ft 468 kts 192°
2026-05-04 09:38 -37.58628 146.35214 26838 ft 447 kts 192°
2026-05-04 09:39 -37.61655 146.34842 26545 ft 429 kts 192°
2026-05-04 09:39 -37.64584 146.34505 26281 ft 414 kts 193°
2026-05-04 09:39 -37.67429 146.34169 25951 ft 410 kts 193°
2026-05-04 09:39 -37.70256 146.33833 25481 ft 409 kts 192°
2026-05-04 09:40 -37.73074 146.33493 25087 ft 406 kts 192°
2026-05-04 09:40 -37.75883 146.33125 24629 ft 402 kts 194°
2026-05-04 09:40 -37.78477 146.32228 24242 ft 383 kts 213°
2026-05-04 09:40 -37.80545 146.30312 23783 ft 362 kts 234°
2026-05-04 09:41 -37.82006 146.27830 23279 ft 347 kts 249°
2026-05-04 09:42 -37.77896 146.11209 20138 ft 289 kts 311°
2026-05-04 09:43 -37.76565 146.09274 19705 ft 302 kts 311°
2026-05-04 09:43 -37.75113 146.07163 19226 ft 336 kts 311°
2026-05-04 09:43 -37.73531 146.04866 18767 ft 355 kts 310°
2026-05-04 09:43 -37.71915 146.02521 18322 ft 356 kts 310°
2026-05-04 09:44 -37.70280 146.00150 17864 ft 354 kts 311°
2026-05-04 09:44 -37.68693 145.97850 17420 ft 351 kts 310°
2026-05-04 09:44 -37.67099 145.95541 16983 ft 349 kts 310°
2026-05-04 09:46 -37.56240 145.79860 13850 ft 330 kts 310°
2026-05-04 09:46 -37.54757 145.77725 13408 ft 322 kts 310°
2026-05-04 09:46 -37.53290 145.75613 12961 ft 314 kts 310°
2026-05-04 09:47 -37.51882 145.73590 12508 ft 306 kts 310°
2026-05-04 09:47 -37.50499 145.71602 12064 ft 298 kts 310°
2026-05-04 09:49 -37.49211 145.56659 9068 ft 271 kts 239°
2026-05-04 09:49 -37.50319 145.54758 9030 ft 274 kts 239°
2026-05-04 09:49 -37.51458 145.52799 9011 ft 273 kts 239°
2026-05-04 09:51 -37.58175 145.41217 8995 ft 271 kts 239°
2026-05-04 09:51 -37.59283 145.39304 9008 ft 270 kts 239°
2026-05-04 09:51 -37.60391 145.37387 9010 ft 270 kts 239°
2026-05-04 09:51 -37.61499 145.35471 9001 ft 270 kts 239°
2026-05-04 09:52 -37.62615 145.33539 9005 ft 270 kts 239°
2026-05-04 09:52 -37.63713 145.31638 9004 ft 270 kts 240°
2026-05-04 09:52 -37.64825 145.29709 9010 ft 271 kts 240°
2026-05-04 09:52 -37.65934 145.27786 9006 ft 271 kts 240°
2026-05-04 09:53 -37.67045 145.25858 9003 ft 270 kts 240°
2026-05-04 09:53 -37.68151 145.23936 8907 ft 273 kts 240°
2026-05-04 09:53 -37.69268 145.21994 8575 ft 273 kts 239°
2026-05-04 09:53 -37.70379 145.20068 8211 ft 269 kts 239°
2026-05-04 09:54 -37.71466 145.18181 7873 ft 263 kts 239°
2026-05-04 09:54 -37.72538 145.16319 7512 ft 258 kts 240°
2026-05-04 09:54 -37.73577 145.14514 7196 ft 251 kts 240°
2026-05-04 09:54 -37.74590 145.12755 6851 ft 245 kts 240°
2026-05-04 09:55 -37.75581 145.11032 6496 ft 237 kts 240°
2026-05-04 09:55 -37.76518 145.09402 6223 ft 226 kts 240°
2026-05-04 09:55 -37.77430 145.07819 6007 ft 213 kts 241°
2026-05-04 09:55 -37.78272 145.06358 6022 ft 202 kts 242°
2026-05-04 09:56 -37.79093 145.04916 5959 ft 206 kts 242°
2026-05-04 09:56 -37.79955 145.03397 5484 ft 213 kts 241°
2026-05-04 09:56 -37.80811 145.01897 4936 ft 213 kts 241°
2026-05-04 09:56 -37.81478 145.00296 4575 ft 194 kts 260°
2026-05-04 09:57 -37.81758 144.98697 4320 ft 187 kts 263°
2026-05-04 09:57 -37.82038 144.97080 4054 ft 188 kts 263°
2026-05-04 09:57 -37.82321 144.95458 3809 ft 189 kts 264°
2026-05-04 09:57 -37.82570 144.93834 3553 ft 187 kts 266°
2026-05-04 09:58 -37.82769 144.92227 3307 ft 186 kts 266°
2026-05-04 09:58 -37.82969 144.90613 3057 ft 184 kts 266°
2026-05-04 09:58 -37.83141 144.89024 2814 ft 183 kts 273°
2026-05-04 10:00 -37.75966 144.85483 1799 ft 166 kts 348°
2026-05-04 10:00 -37.74910 144.85288 1546 ft 142 kts 348°
2026-05-04 10:02 -37.69275 144.84238 579 ft 106 kts 351°
2026-05-04 10:04 -37.66516 144.83824 408 ft 0 kts 69°
2026-05-04 10:04 -37.66516 144.83826 408 ft 0 kts 69°
2026-05-04 10:04 -37.66512 144.83839 408 ft 3 kts 74°
2026-05-04 10:04 -37.66512 144.83841 408 ft 0 kts 75°
2026-05-04 10:05 -37.66510 144.83864 407 ft 1 kts 91°
2026-05-04 10:05 -37.66513 144.83920 406 ft 10 kts 95°
2026-05-04 10:05 -37.66522 144.84030 401 ft 12 kts 94°
2026-05-04 10:05 -37.66524 144.84079 398 ft 10 kts 91°
2026-05-04 10:06 -37.66529 144.84180 393 ft 11 kts 94°
2026-05-04 10:06 -37.66529 144.84293 389 ft 11 kts 83°
2026-05-04 10:06 -37.66517 144.84396 391 ft 12 kts 81°
2026-05-04 10:08 -37.66616 144.84779 399 ft 12 kts 224°
2026-05-04 10:08 -37.66607 144.84729 397 ft 9 kts 339°
2026-05-04 10:08 -37.66563 144.84700 398 ft 0 kts 330°